When you browse on this site, cookies collect data to enhance your experience and personalize the content and advertising you see.
Visit our Privacy Policy to learn more. By continuing to use the site, you agree to this use of cookies and data.
  • In Schweiz
  • Länderverzeichnis
  • Für 7 Tage
  • Wassertemperatur
  • Satellitenkarten
  • Wetterkarte
  • Widgets
  • user-avatar
    Anmelden

    Stündliche Wetter Lambaréné

    Heute, 23 Juli, Dienstag

    Zeit Temperatur Niederschläge Wind Luftdruck Luftfeuchtigkeit
    00:00 +25°C° 0 mm 2 m/S 756 mmHg 79%
    01:00 +25°C° 0 mm 2 m/S 755 mmHg 80%
    02:00 +24°C° 0 mm 2 m/S 755 mmHg 82%
    03:00 +24°C° 0 mm 2 m/S 755 mmHg 83%
    04:00 +23°C° 0 mm 1 m/S 755 mmHg 85%
    05:00 +23°C° 0 mm 1 m/S 755 mmHg 85%
    06:00 +23°C° 0 mm 1 m/S 755 mmHg 84%
    07:00 +23°C° 0 mm 1 m/S 755 mmHg 84%
    08:00 +26°C° 0 mm 1 m/S 756 mmHg 75%
    09:00 +28°C° 0 mm 1 m/S 756 mmHg 66%
    10:00 +30°C° 0 mm 1 m/S 756 mmHg 57%
    11:00 +32°C° 0 mm 1 m/S 755 mmHg 53%
    12:00 +34°C° 0 mm 1 m/S 755 mmHg 48%
    13:00 +35°C° 0 mm 1 m/S 754 mmHg 44%
    14:00 +34°C° 0 mm 1 m/S 753 mmHg 45%
    15:00 +35°C° 0 mm 2 m/S 753 mmHg 46%
    16:00 +34°C° 0 mm 2 m/S 752 mmHg 47%
    17:00 +32°C° 0 mm 2 m/S 752 mmHg 52%
    18:00 +30°C° 0 mm 2 m/S 753 mmHg 58%
    19:00 +29°C° 0 mm 3 m/S 753 mmHg 63%
    20:00 +28°C° 0 mm 3 m/S 754 mmHg 68%
    21:00 +27°C° 0 mm 3 m/S 754 mmHg 72%
    22:00 +26°C° 0 mm 2 m/S 754 mmHg 77%
    23:00 +25°C° 0 mm 2 m/S 754 mmHg 79%

    Morgen, 24 Juli, Mittwoch

    Zeit Temperatur Niederschläge Wind Luftdruck Luftfeuchtigkeit
    00:00 +25°C° 0 mm 2 m/S 754 mmHg 82%
    01:00 +24°C° 0 mm 1 m/S 754 mmHg 85%
    02:00 +24°C° 0 mm 1 m/S 754 mmHg 85%
    03:00 +24°C° 0 mm 1 m/S 754 mmHg 85%
    04:00 +24°C° 0 mm 1 m/S 753 mmHg 85%
    05:00 +24°C° 0 mm 1 m/S 754 mmHg 84%
    06:00 +24°C° 0 mm 1 m/S 754 mmHg 83%
    07:00 +24°C° 0 mm 1 m/S 755 mmHg 82%
    08:00 +25°C° 0 mm 1 m/S 755 mmHg 79%
    09:00 +26°C° 0 mm 1 m/S 755 mmHg 76%
    10:00 +26°C° 0 mm 1 m/S 756 mmHg 73%
    11:00 +27°C° 0 mm 1 m/S 755 mmHg 70%
    12:00 +28°C° 0 mm 1 m/S 755 mmHg 68%
    13:00 +28°C° 0 mm 1 m/S 754 mmHg 65%
    14:00 +28°C° 0 mm 1 m/S 754 mmHg 65%
    15:00 +29°C° 0 mm 1 m/S 753 mmHg 65%
    16:00 +29°C° 0 mm 2 m/S 752 mmHg 64%
    17:00 +28°C° 0 mm 1 m/S 753 mmHg 68%
    18:00 +27°C° 0 mm 1 m/S 753 mmHg 72%
    19:00 +26°C° 0 mm 1 m/S 754 mmHg 75%
    20:00 +26°C° 0 mm 1 m/S 754 mmHg 77%
    21:00 +25°C° 0 mm 2 m/S 754 mmHg 79%
    22:00 +25°C° 0 mm 2 m/S 755 mmHg 81%
    23:00 +24°C° 0 mm 2 m/S 755 mmHg 83%

    übermorgen, 25 Juli, Donnerstag

    Zeit Temperatur Niederschläge Wind Luftdruck Luftfeuchtigkeit
    00:00 +24°C° 0 mm 2 m/S 755 mmHg 85%
    01:00 +23°C° 0 mm 2 m/S 755 mmHg 86%
    02:00 +23°C° 0 mm 1 m/S 755 mmHg 88%
    03:00 +23°C° 0 mm 1 m/S 755 mmHg 89%
    04:00 +22°C° 0 mm 1 m/S 754 mmHg 90%
    05:00 +22°C° 0 mm 1 m/S 755 mmHg 90%
    06:00 +22°C° 0 mm 1 m/S 755 mmHg 89%
    07:00 +22°C° 0 mm 1 m/S 755 mmHg 88%
    08:00 +24°C° 0 mm 1 m/S 756 mmHg 81%
    09:00 +26°C° 0 mm 1 m/S 756 mmHg 74%
    10:00 +28°C° 0 mm 1 m/S 756 mmHg 67%
    11:00 +29°C° 0 mm 1 m/S 756 mmHg 63%
    12:00 +30°C° 0 mm 1 m/S 755 mmHg 59%
    13:00 +31°C° 0 mm 1 m/S 755 mmHg 55%
    14:00 +31°C° 0 mm 2 m/S 754 mmHg 56%
    15:00 +30°C° 0 mm 2 m/S 753 mmHg 58%
    16:00 +30°C° 0 mm 2 m/S 753 mmHg 59%
    17:00 +29°C° 0 mm 2 m/S 753 mmHg 64%
    18:00 +28°C° 0 mm 2 m/S 754 mmHg 69%
    19:00 +27°C° 0 mm 2 m/S 754 mmHg 73%
    20:00 +26°C° 0 mm 2 m/S 755 mmHg 75%
    21:00 +26°C° 0 mm 3 m/S 755 mmHg 78%
    22:00 +25°C° 0 mm 3 m/S 756 mmHg 80%
    23:00 +24°C° 0 mm 3 m/S 756 mmHg 82%

    26 Juli, Freitag

    Zeit Temperatur Niederschläge Wind Luftdruck Luftfeuchtigkeit
    00:00 +24°C° 0 mm 2 m/S 756 mmHg 85%
    01:00 +23°C° 0 mm 2 m/S 756 mmHg 87%
    02:00 +23°C° 0 mm 2 m/S 756 mmHg 88%
    03:00 +23°C° 0 mm 2 m/S 755 mmHg 88%
    04:00 +23°C° 0 mm 1 m/S 755 mmHg 89%
    05:00 +23°C° 0 mm 1 m/S 756 mmHg 88%
    06:00 +23°C° 0 mm 1 m/S 756 mmHg 88%
    07:00 +23°C° 0 mm 1 m/S 756 mmHg 87%
    08:00 +25°C° 0 mm 1 m/S 756 mmHg 80%
    09:00 +26°C° 0 mm 1 m/S 757 mmHg 72%
    10:00 +28°C° 0 mm 1 m/S 757 mmHg 64%
    11:00 +29°C° 0 mm 1 m/S 756 mmHg 60%
    12:00 +31°C° 0 mm 1 m/S 755 mmHg 55%
    13:00 +32°C° 0 mm 2 m/S 755 mmHg 50%
    14:00 +32°C° 0 mm 2 m/S 754 mmHg 49%
    15:00 +34°C° 0 mm 2 m/S 753 mmHg 48%
    16:00 +34°C° 0 mm 2 m/S 753 mmHg 46%
    17:00 +31°C° 0 mm 2 m/S 753 mmHg 52%
    18:00 +30°C° 0 mm 2 m/S 753 mmHg 57%
    19:00 +28°C° 0 mm 2 m/S 753 mmHg 63%
    20:00 +27°C° 0 mm 2 m/S 754 mmHg 67%
    21:00 +26°C° 0 mm 3 m/S 755 mmHg 71%
    22:00 +25°C° 0 mm 3 m/S 756 mmHg 76%
    23:00 +25°C° 0 mm 3 m/S 756 mmHg 78%

    27 Juli, Samstag

    Zeit Temperatur Niederschläge Wind Luftdruck Luftfeuchtigkeit
    00:00 +24°C° 0 mm 2 m/S 756 mmHg 80%
    01:00 +23°C° 0 mm 2 m/S 756 mmHg 83%
    02:00 +23°C° 0 mm 2 m/S 756 mmHg 84%
    03:00 +23°C° 0 mm 1 m/S 755 mmHg 86%
    04:00 +22°C° 0 mm 1 m/S 755 mmHg 88%
    05:00 +22°C° 0 mm 1 m/S 756 mmHg 88%
    06:00 +22°C° 0 mm 1 m/S 756 mmHg 88%
    07:00 +20°C° 0 mm 0 m/S 756 mmHg 88%
    08:00 +24°C° 0 mm 1 m/S 756 mmHg 80%
    09:00 +26°C° 0 mm 1 m/S 757 mmHg 72%
    10:00 +27°C° 0 mm 1 m/S 757 mmHg 64%
    11:00 +29°C° 0 mm 1 m/S 756 mmHg 59%
    12:00 +30°C° 0 mm 2 m/S 756 mmHg 53%
    13:00 +32°C° 0 mm 2 m/S 755 mmHg 47%
    14:00 +32°C° 0 mm 2 m/S 754 mmHg 47%
    15:00 +32°C° 0 mm 2 m/S 754 mmHg 46%
    16:00 +32°C° 0 mm 2 m/S 753 mmHg 45%
    17:00 +31°C° 0 mm 2 m/S 753 mmHg 51%
    18:00 +29°C° 0 mm 2 m/S 754 mmHg 57%
    19:00 +28°C° 0 mm 3 m/S 754 mmHg 63%
    20:00 +27°C° 0 mm 3 m/S 755 mmHg 68%
    21:00 +26°C° 0 mm 2 m/S 755 mmHg 72%
    22:00 +25°C° 0 mm 2 m/S 756 mmHg 77%
    23:00 +24°C° 0 mm 2 m/S 756 mmHg 78%

    28 Juli, Sonntag

    Zeit Temperatur Niederschläge Wind Luftdruck Luftfeuchtigkeit
    00:00 +24°C° 0 mm 2 m/S 756 mmHg 79%
    01:00 +24°C° 0 mm 2 m/S 756 mmHg 80%
    02:00 +24°C° 0 mm 2 m/S 756 mmHg 80%
    03:00 +24°C° 0 mm 2 m/S 756 mmHg 80%
    04:00 +23°C° 0 mm 2 m/S 755 mmHg 81%
    05:00 +23°C° 0 mm 1 m/S 756 mmHg 80%
    06:00 +23°C° 0 mm 1 m/S 756 mmHg 79%
    07:00 +23°C° 0 mm 1 m/S 756 mmHg 79%
    08:00 +25°C° 0 mm 1 m/S 756 mmHg 71%
    09:00 +27°C° 0 mm 1 m/S 757 mmHg 63%
    10:00 +28°C° 0 mm 1 m/S 757 mmHg 56%
    11:00 +30°C° 0 mm 1 m/S 756 mmHg 50%
    12:00 +31°C° 0 mm 2 m/S 756 mmHg 45%
    13:00 +34°C° 0 mm 2 m/S 755 mmHg 40%
    14:00 +34°C° 0 mm 2 m/S 755 mmHg 39%
    15:00 +34°C° 0 mm 2 m/S 754 mmHg 38%
    16:00 +34°C° 0 mm 2 m/S 753 mmHg 38%
    17:00 +31°C° 0 mm 2 m/S 754 mmHg 44%
    18:00 +29°C° 0 mm 2 m/S 754 mmHg 50%
    19:00 +28°C° 0 mm 3 m/S 754 mmHg 56%
    20:00 +27°C° 0 mm 3 m/S 755 mmHg 62%
    21:00 +26°C° 0 mm 3 m/S 756 mmHg 68%
    22:00 +25°C° 0 mm 3 m/S 756 mmHg 74%
    23:00 +24°C° 0 mm 2 m/S 756 mmHg 76%
    Mehr zeigen